Location: *
(53.9002°N, 27.5624°E)
Time: 05:02:47
(UTC+00:00)

Cosmos 2263 Rocket - Pass Details

Date: 12 November 2019
Orbit: 825 x 847 km, 71.0° (Epoch: 07 December)

Event Time Altitude Azimuth Distance (km) Brightness Sun altitude
Rises 16:23:38 0° 326° (NW) 3,382 5.7 -18.6°
Reaches altitude 10° 16:26:23 10° 337° (NNW) 2,443 4.8 -19.0°
Maximum altitude 16:31:17 30° 38° (NE) 1,444 3.1 -19.7°
Enters shadow 16:31:48 30° 49° (NE) 1,459 3.0 -19.8°
